Back to catalog

CLOUDSAT

AliveWeatherPO
NORAD 29107·PAYLOAD·🇺🇸 United States

Launched Apr 28, 2006 from Vandenberg Space Force Base

Loading…

Next Passes (next 24 hours)

TLE

FreshSource: Space-Track

Epoch: Sep 14, 2026, 14:38 UTC

1 29107U 06016A   26257.60992342  .00000659  00000-0  81297-4 0  9990
2 29107  98.3854 299.8317 0006163  52.4986 307.6788 14.86536897 87794

Track CLOUDSAT in real time with AllMySat

Download on the App Store